| time (UTC) | temp F | wind direction | speed knots | gust knots | rain 1hr in | rain 24hr in | rain mn in | humidity % | barometer mb |
| 20260505211826 | 75 | 7 | 6.1 | 13.9 | 0.00 | 0.00 | 0.00 | 49 | 1009.7 |
| 20260505210905 | 75 | 8 | 7.0 | 13.9 | 0.00 | 0.00 | 0.00 | 48 | 1009.8 |
| 20260505210006 | 75 | 8 | 7.0 | 15.6 | 0.00 | 0.00 | 0.00 | 49 | 1009.9 |
| 20260505205404 | 75 | 1 | 7.0 | 15.6 | 0.00 | 0.00 | 0.00 | 49 | 1009.9 |
| 20260505204504 | 76 | 357 | 6.1 | 12.2 | 0.00 | 0.00 | 0.00 | 47 | 1010.1 |
| 20260505203605 | 76 | 354 | 6.1 | 12.2 | 0.00 | 0.00 | 0.00 | 44 | 1010.1 |
| 20260505202705 | 75 | 1 | 6.1 | 13.0 | 0.00 | 0.00 | 0.00 | 48 | 1010.2 |
| 20260505201826 | 75 | 16 | 6.1 | 13.9 | 0.00 | 0.00 | 0.00 | 48 | 1010.2 |
| 20260505200927 | 75 | 355 | 6.1 | 13.9 | 0.00 | 0.00 | 0.00 | 47 | 1010.2 |
| 20260505200005 | 76 | 346 | 5.2 | 12.2 | 0.00 | 0.00 | 0.00 | 46 | 1010.2 |
| 20260505195407 | 75 | 351 | 5.2 | 10.4 | 0.00 | 0.00 | 0.00 | 45 | 1010.4 |
| 20260505194505 | 74 | 345 | 6.1 | 12.2 | 0.00 | 0.00 | 0.00 | 46 | 1010.4 |
| 20260505193625 | 74 | 359 | 6.1 | 12.2 | 0.00 | 0.00 | 0.00 | 46 | 1010.5 |
| 20260505192705 | 74 | 3 | 5.2 | 13.0 | 0.00 | 0.00 | 0.00 | 47 | 1010.5 |
| 20260505191806 | 74 | 352 | 6.1 | 10.4 | 0.00 | 0.00 | 0.00 | 48 | 1010.6 |
| 20260505190926 | 73 | 360 | 7.0 | 13.9 | 0.00 | 0.00 | 0.00 | 47 | 1010.7 |
| 20260505190026 | 74 | 1 | 4.3 | 13.9 | 0.00 | 0.00 | 0.00 | 47 | 1010.7 |
| 20260505185405 | 73 | 9 | 5.2 | 13.9 | 0.00 | 0.00 | 0.00 | 48 | 1010.7 |
| 20260505184505 | 72 | 348 | 6.1 | 13.0 | 0.00 | 0.00 | 0.00 | 49 | 1010.8 |
| 20260505183625 | 72 | 343 | 6.1 | 13.0 | 0.00 | 0.00 | 0.00 | 49 | 1010.8 |
| 20260505182705 | 71 | 354 | 7.8 | 13.9 | 0.00 | 0.00 | 0.00 | 50 | 1010.9 |
| 20260505181805 | 71 | 344 | 7.0 | 13.0 | 0.00 | 0.00 | 0.00 | 51 | 1011.0 |
| 20260505180926 | 71 | 334 | 6.1 | 13.0 | 0.00 | 0.00 | 0.00 | 52 | 1011.0 |
| 20260505180026 | 71 | 348 | 6.1 | 12.2 | 0.00 | 0.00 | 0.00 | 52 | 1011.0 |
| 20260505175405 | 71 | 355 | 6.1 | 13.0 | 0.00 | 0.00 | 0.00 | 52 | 1010.9 |
| 20260505174505 | 70 | 332 | 5.2 | 10.4 | 0.00 | 0.00 | 0.00 | 53 | 1011.0 |
| 20260505173604 | 70 | 356 | 6.1 | 13.9 | 0.00 | 0.00 | 0.00 | 54 | 1011.0 |
| 20260505172726 | 70 | 339 | 4.3 | 9.6 | 0.00 | 0.00 | 0.00 | 55 | 1011.0 |
| 20260505171805 | 69 | 336 | 4.3 | 9.6 | 0.00 | 0.00 | 0.00 | 56 | 1011.0 |
| 20260505170905 | 69 | 319 | 5.2 | 10.4 | 0.00 | 0.00 | 0.00 | 56 | 1010.9 |
| 20260505170026 | 68 | 305 | 4.3 | 9.6 | 0.00 | 0.00 | 0.00 | 58 | 1011.0 |
| 20260505165404 | 68 | 292 | 4.3 | 9.6 | 0.00 | 0.00 | 0.00 | 59 | 1011.0 |
| 20260505164505 | 68 | 317 | 4.3 | 9.6 | 0.00 | 0.00 | 0.00 | 58 | 1011.0 |
| 20260505163604 | 67 | 289 | 5.2 | 9.6 | 0.00 | 0.00 | 0.00 | 59 | 1011.0 |
| 20260505162704 | 66 | 277 | 4.3 | 13.0 | 0.00 | 0.00 | 0.00 | 59 | 1011.0 |
| 20260505161805 | 66 | 299 | 6.1 | 13.9 | 0.00 | 0.00 | 0.00 | 61 | 1011.0 |
| 20260505160905 | 66 | 289 | 5.2 | 12.2 | 0.00 | 0.00 | 0.00 | 60 | 1011.0 |
| 20260505152726 | 64 | 319 | 6.1 | 17.4 | 0.00 | 0.00 | 0.00 | 63 | 1010.8 |
| 20260505151825 | 64 | 325 | 7.0 | 13.9 | 0.00 | 0.00 | 0.00 | 64 | 1010.7 |
| 20260505150905 | 64 | 331 | 7.8 | 13.9 | 0.00 | 0.00 | 0.00 | 64 | 1010.7 |
| 20260505124505 | 62 | 343 | 6.1 | 10.4 | 0.00 | 0.00 | 0.00 | 68 | 1009.3 |
| 20260505123604 | 62 | 341 | 5.2 | 10.4 | 0.00 | 0.00 | 0.00 | 68 | 1009.2 |
| 20260505122704 | 63 | 349 | 4.3 | 9.6 | 0.00 | 0.00 | 0.00 | 68 | 1009.1 |
| 20260505121804 | 63 | 343 | 3.5 | 8.7 | 0.00 | 0.00 | 0.00 | 67 | 1009.0 |
| 20260505120904 | 63 | 333 | 4.3 | 9.6 | 0.00 | 0.00 | 0.00 | 67 | 1009.0 |
| 20260505120005 | 63 | 334 | 5.2 | 10.4 | 0.00 | 0.00 | 0.00 | 67 | 1008.9 |
| 20260505115404 | 64 | 338 | 5.2 | 13.0 | 0.00 | 0.00 | 0.00 | 66 | 1008.9 |
| 20260505114505 | 64 | 323 | 4.3 | 10.4 | 0.00 | 0.00 | 0.00 | 66 | 1008.9 |
| 20260505113604 | 64 | 324 | 5.2 | 13.0 | 0.00 | 0.00 | 0.00 | 66 | 1008.8 |
| 20260505112704 | 64 | 331 | 4.3 | 12.2 | 0.00 | 0.00 | 0.00 | 66 | 1008.8 |
| 20260505111804 | 64 | 340 | 3.5 | 9.6 | 0.00 | 0.00 | 0.00 | 67 | 1008.7 |
| 20260505110904 | 64 | 349 | 3.5 | 9.6 | 0.00 | 0.00 | 0.00 | 67 | 1008.6 |
| 20260505101804 | 65 | 356 | 3.5 | 9.6 | 0.00 | 0.00 | 0.00 | 65 | 1008.1 |
| 20260505100904 | 65 | 346 | 3.5 | 9.6 | 0.00 | 0.00 | 0.00 | 65 | 1008.2 |
| 20260505100005 | 66 | 342 | 4.3 | 9.6 | 0.00 | 0.00 | 0.00 | 64 | 1008.0 |
| 20260505095405 | 66 | 330 | 4.3 | 12.2 | 0.00 | 0.00 | 0.00 | 64 | 1008.1 |
| 20260505094504 | 66 | 313 | 5.2 | 12.2 | 0.00 | 0.00 | 0.00 | 64 | 1008.0 |
| 20260505093604 | 66 | 336 | 4.3 | 9.6 | 0.00 | 0.00 | 0.00 | 64 | 1008.0 |
| 20260505092704 | 67 | 333 | 6.1 | 13.9 | 0.00 | 0.00 | 0.00 | 63 | 1007.9 |
| 20260505091805 | 67 | 325 | 6.1 | 13.0 | 0.00 | 0.00 | 0.00 | 63 | 1007.9 |
| 20260505090925 | 67 | 331 | 5.2 | 13.0 | 0.00 | 0.00 | 0.00 | 63 | 1007.8 |
| 20260505090005 | 67 | 327 | 6.1 | 12.2 | 0.00 | 0.00 | 0.00 | 62 | 1007.7 |
| 20260505085425 | 68 | 330 | 6.1 | 12.2 | 0.00 | 0.00 | 0.00 | 62 | 1007.7 |
| 20260505084504 | 68 | 331 | 6.1 | 9.6 | 0.00 | 0.00 | 0.00 | 61 | 1007.6 |
| 20260505083604 | 68 | 329 | 3.5 | 7.8 | 0.00 | 0.00 | 0.00 | 61 | 1007.6 |
| 20260505082704 | 68 | 322 | 1.7 | 5.2 | 0.00 | 0.00 | 0.00 | 61 | 1007.6 |
| 20260505081825 | 69 | 348 | 2.6 | 7.8 | 0.00 | 0.00 | 0.00 | 60 | 1007.7 |
| 20260505080926 | 69 | 316 | 3.5 | 9.6 | 0.00 | 0.00 | 0.00 | 59 | 1007.6 |
| 20260505080004 | 69 | 307 | 3.5 | 8.7 | 0.00 | 0.00 | 0.00 | 58 | 1007.5 |
| 20260505075404 | 70 | 298 | 3.5 | 12.2 | 0.00 | 0.00 | 0.00 | 58 | 1007.6 |
| 20260505074525 | 70 | 313 | 4.3 | 12.2 | 0.00 | 0.00 | 0.00 | 57 | 1007.5 |
| 20260505073604 | 70 | 317 | 4.3 | 12.2 | 0.00 | 0.00 | 0.00 | 58 | 1007.5 |
| 20260505072705 | 70 | 310 | 4.3 | 13.0 | 0.00 | 0.00 | 0.00 | 57 | 1007.3 |
| 20260505071804 | 70 | 296 | 5.2 | 17.4 | 0.00 | 0.00 | 0.00 | 57 | 1007.3 |
| 20260505070904 | 70 | 313 | 3.5 | 12.2 | 0.00 | 0.00 | 0.00 | 56 | 1007.2 |
| 20260505070005 | 71 | 304 | 4.3 | 9.6 | 0.00 | 0.00 | 0.00 | 56 | 1007.2 |
| 20260505065404 | 71 | 317 | 3.5 | 8.7 | 0.00 | 0.00 | 0.00 | 56 | 1007.2 |
| 20260505064504 | 71 | 287 | 4.3 | 13.9 | 0.00 | 0.00 | 0.00 | 56 | 1007.1 |
| 20260505063604 | 71 | 303 | 5.2 | 12.2 | 0.00 | 0.00 | 0.00 | 55 | 1007.0 |
| 20260505062704 | 71 | 320 | 4.3 | 12.2 | 0.00 | 0.00 | 0.00 | 55 | 1007.0 |
| 20260505061804 | 71 | 307 | 4.3 | 10.4 | 0.00 | 0.00 | 0.00 | 55 | 1007.0 |
| 20260505060904 | 71 | 311 | 2.6 | 8.7 | 0.00 | 0.00 | 0.00 | 55 | 1006.9 |
| 20260505060005 | 71 | 311 | 3.5 | 10.4 | 0.00 | 0.00 | 0.00 | 53 | 1006.9 |
| 20260505055405 | 72 | 327 | 3.5 | 12.2 | 0.00 | 0.00 | 0.00 | 53 | 1006.8 |
| 20260505054504 | 72 | 320 | 2.6 | 8.7 | 0.00 | 0.00 | 0.00 | 52 | 1006.8 |
| 20260505053625 | 72 | 311 | 3.5 | 10.4 | 0.00 | 0.00 | 0.00 | 51 | 1006.8 |
| 20260505052704 | 72 | 285 | 5.2 | 15.6 | 0.00 | 0.00 | 0.00 | 50 | 1006.7 |
| 20260505051804 | 73 | 277 | 7.0 | 16.5 | 0.00 | 0.00 | 0.00 | 50 | 1006.6 |
| 20260505050904 | 73 | 284 | 4.3 | 13.0 | 0.00 | 0.00 | 0.00 | 49 | 1006.5 |
| 20260505040904 | 75 | 290 | 7.0 | 15.6 | 0.00 | 0.00 | 0.00 | 44 | 1005.9 |
| 20260505040005 | 75 | 283 | 7.8 | 18.2 | 0.00 | 0.00 | 0.00 | 44 | 1005.7 |
| 20260505035404 | 75 | 282 | 7.0 | 17.4 | 0.00 | 0.00 | 0.00 | 44 | 1005.6 |
| 20260505034504 | 75 | 293 | 7.0 | 13.9 | 0.00 | 0.00 | 0.00 | 44 | 1005.6 |
| 20260505033604 | 75 | 305 | 7.0 | 18.2 | 0.00 | 0.00 | 0.00 | 44 | 1005.5 |
| 20260505032704 | 76 | 305 | 7.0 | 13.9 | 0.00 | 0.00 | 0.00 | 44 | 1005.4 |
| 20260505031804 | 76 | 292 | 6.1 | 13.9 | 0.00 | 0.00 | 0.00 | 44 | 1005.4 |
| 20260505030904 | 76 | 313 | 5.2 | 13.9 | 0.00 | 0.00 | 0.00 | 44 | 1005.2 |
| 20260505030005 | 77 | 286 | 5.2 | 13.0 | 0.00 | 0.00 | 0.00 | 43 | 1005.1 |
| 20260505025404 | 77 | 289 | 4.3 | 13.0 | 0.00 | 0.00 | 0.00 | 43 | 1005.1 |
| 20260505024504 | 78 | 284 | 4.3 | 10.4 | 0.00 | 0.00 | 0.00 | 42 | 1004.9 |
| 20260505023604 | 78 | 276 | 5.2 | 15.6 | 0.00 | 0.00 | 0.00 | 41 | 1004.9 |
| 20260505022704 | 79 | 272 | 2.6 | 10.4 | 0.00 | 0.00 | 0.00 | 41 | 1004.8 |
| 20260505021806 | 80 | 291 | 5.2 | 12.2 | 0.00 | 0.00 | 0.00 | 42 | 1004.8 |
| 20260505020904 | 80 | 313 | 4.3 | 13.9 | 0.00 | 0.00 | 0.00 | 41 | 1004.8 |
| 20260505020004 | 81 | 313 | 3.5 | 12.2 | 0.00 | 0.00 | 0.00 | 41 | 1004.8 |
| 20260505015404 | 80 | 303 | 5.2 | 16.5 | 0.00 | 0.00 | 0.00 | 41 | 1004.8 |
| 20260505014504 | 81 | 306 | 6.1 | 13.9 | 0.00 | 0.00 | 0.00 | 40 | 1004.8 |
| 20260505013604 | 81 | 318 | 7.0 | 13.9 | 0.00 | 0.00 | 0.00 | 40 | 1004.8 |
| 20260505012704 | 82 | 305 | 7.0 | 13.0 | 0.00 | 0.00 | 0.00 | 39 | 1004.8 |
| 20260505011825 | 82 | 308 | 4.3 | 12.2 | 0.00 | 0.00 | 0.00 | 38 | 1004.8 |
| 20260505010925 | 82 | 322 | 6.1 | 13.0 | 0.00 | 0.00 | 0.00 | 39 | 1004.7 |
| 20260505010004 | 82 | 327 | 4.3 | 10.4 | 0.00 | 0.00 | 0.00 | 39 | 1004.6 |
| 20260505005404 | 82 | 325 | 5.2 | 15.6 | 0.00 | 0.00 | 0.00 | 39 | 1004.6 |
| 20260505004504 | 83 | 329 | 6.1 | 15.6 | 0.00 | 0.00 | 0.00 | 38 | 1004.6 |
| 20260505003604 | 83 | 306 | 6.1 | 16.5 | 0.00 | 0.00 | 0.00 | 37 | 1004.7 |
| 20260505002704 | 84 | 317 | 6.1 | 13.0 | 0.00 | 0.00 | 0.00 | 36 | 1004.6 |
| 20260505001804 | 84 | 339 | 6.1 | 16.5 | 0.00 | 0.00 | 0.00 | 35 | 1004.6 |
| 20260505000904 | 84 | 326 | 6.1 | 17.4 | 0.00 | 0.00 | 0.00 | 36 | 1004.7 |
| 20260505000004 | 84 | 324 | 7.0 | 17.4 | 0.00 | 0.00 | 0.00 | 36 | 1004.7 |
| 20260504235404 | 84 | 332 | 7.0 | 13.9 | 0.00 | 0.00 | 0.00 | 36 | 1004.8 |
| 20260504234505 | 84 | 324 | 7.8 | 16.5 | 0.00 | 0.00 | 0.00 | 36 | 1004.8 |
| 20260504233604 | 84 | 310 | 7.0 | 17.4 | 0.00 | 0.00 | 0.00 | 36 | 1004.7 |
| 20260504232725 | 84 | 318 | 7.8 | 15.6 | 0.00 | 0.00 | 0.00 | 36 | 1004.8 |
| 20260504231825 | 84 | 318 | 7.8 | 16.5 | 0.00 | 0.00 | 0.00 | 37 | 1004.8 |
| 20260504230925 | 84 | 328 | 7.0 | 17.4 | 0.00 | 0.00 | 0.00 | 36 | 1004.8 |
| 20260504230025 | 84 | 318 | 6.1 | 13.9 | 0.00 | 0.00 | 0.00 | 36 | 1004.9 |
| 20260504225404 | 85 | 329 | 7.0 | 13.9 | 0.00 | 0.00 | 0.00 | 35 | 1005.0 |
| 20260504224504 | 85 | 333 | 7.0 | 16.5 | 0.00 | 0.00 | 0.00 | 35 | 1005.1 |
| 20260504223604 | 85 | 330 | 6.1 | 16.5 | 0.00 | 0.00 | 0.00 | 34 | 1005.2 |
| 20260504222704 | 85 | 1 | 7.0 | 15.6 | 0.00 | 0.00 | 0.00 | 34 | 1005.3 |
| 20260504221804 | 84 | 2 | 6.1 | 13.9 | 0.00 | 0.00 | 0.00 | 35 | 1005.4 |
| 20260504220904 | 84 | 345 | 7.0 | 13.9 | 0.00 | 0.00 | 0.00 | 34 | 1005.5 |
| 20260504220004 | 85 | 331 | 5.2 | 13.0 | 0.00 | 0.00 | 0.00 | 35 | 1005.5 |
| 20260504215404 | 84 | 336 | 6.1 | 13.0 | 0.00 | 0.00 | 0.00 | 36 | 1005.6 |
| 20260504214505 | 85 | 296 | 4.3 | 12.2 | 0.00 | 0.00 | 0.00 | 34 | 1005.6 |
| 20260504213604 | 84 | 352 | 6.1 | 13.9 | 0.00 | 0.00 | 0.00 | 35 | 1005.7 |
| 20260504212704 | 84 | 325 | 4.3 | 13.0 | 0.00 | 0.00 | 0.00 | 35 | 1005.9 |